Location: Mountain Grove
(34.0887°N, 86.6172°W)
Time: 15:19:32
(UTC+00:00)

USA 215 - Pass Details

Date: 14 July 2020
Orbit: 1102 x 1106 km, 123.0° (Epoch: 08 August)

Event Time Altitude Azimuth Distance (km) Brightness Sun altitude
Rises 03:35:09 0° 44° (NE) 3,921 6.3 -25.4°
Reaches altitude 10° 03:37:39 10° 47° (NE) 2,960 5.6 -25.7°
Maximum altitude 03:44:11 71° 131° (SE) 1,155 3.1 -26.5°
Enters shadow 03:46:27 43° 202° (SSW) 1,499 3.7 -26.8°
